[Iaude] MPEC G36: 2024 GG [a=1.69,e=0.38,i=5.1,H=26.8]
    mpec at cfa.harvard.edu 
    mpec at cfa.harvard.edu
       
    Wed Apr  3 20:38:49 EDT 2024
    
    
  
M.P.E.C. 2024-G36                                 Issued 2024 April 4, 00:37 UT
     The Minor Planet Electronic Circulars contain information on unusual
         minor planets, routine data on comets and natural satellites,
         and occasional editorial announcements.  They are published
    on behalf of Division F of the International Astronomical Union by the
          Minor Planet Center, Smithsonian Astrophysical Observatory,
                          Cambridge, MA 02138, U.S.A.
			  
             Prepared using the Tamkin Foundation Computer Network
                              MPC at CFA.HARVARD.EDU
            URL https://www.minorplanetcenter.net/    ISSN 1523-6714
                                    2024 GG                                     
Observations:
     K24G00G* C2024 04 01.36460613 07 06.129+01 32 24.03         20.44wXEG036F51
     K24G00G  C2024 04 01.38695013 07 17.614+01 27 50.64         20.48wXEG036F51
     K24G00G  C2024 04 01.39813313 07 23.331+01 25 33.13         20.41wXEG036F51
     K24G00G  C2024 04 01.52515013 08 27.909+00 59 28.77         20.17GVEG036F52
     K24G00G  C2024 04 01.52580113 08 28.237+00 59 20.68         20.19GVEG036F52
     K24G00G KB2024 04 02.00784513 13 23.89 -00 42 38.8          19.8 GXEG036958
     K24G00G KB2024 04 02.01276513 13 26.51 -00 43 41.3          20.0 GXEG036958
     K24G00G KB2024 04 02.01769013 13 29.28 -00 44 42.5          20.3 GXEG036958
     K24G00G |C2024 04 02.28241013 16 05.900-01 36 58.20         20.1 GVEG036807
     K24G00G |C2024 04 02.28441213 16 06.990-01 37 24.00         20.0 GVEG036807
     K24G00G |C2024 04 02.28645013 16 08.080-01 37 50.20         20.4 GVEG036807
     K24G00G |C2024 04 02.28845813 16 09.180-01 38 16.00         20.3 GVEG036807
     K24G00G KC2024 04 02.95749313 23 15.53 -04 08 51.4          20.0 GVEG036L01
     K24G00G KC2024 04 02.95897713 23 16.36 -04 09 10.9          20.4 GVEG036L01
     K24G00G KC2024 04 02.96046213 23 17.23 -04 09 30.7          20.6 GVEG036L01
     K24G00G KC2024 04 02.96194613 23 18.04 -04 09 50.7          20.3 GVEG036L01
     K24G00G KC2024 04 02.96343013 23 18.88 -04 10 10.2          20.3 GVEG036L01
     K24G00G KB2024 04 03.95342513 34 08.27 -07 53 36.6          20.5 GXEG036I93
     K24G00G KB2024 04 03.95893713 34 11.64 -07 54 53.0          20.6 GXEG036I93
     K24G00G KB2024 04 03.96444113 34 14.97 -07 56 08.4          20.3 GXEG036I93
Observer details:
807 Cerro Tololo Observatory, La Serena.  Observers T. Linder, R. Holmes.
    0.61-m f/6.8 Ritchey-Chretien + CCD.
958 Observatoire de Dax.  Observer P. Dupouy.  0.50-m f/4.5 Reflector + CMO.
F51 Pan-STARRS 1, Haleakala.  Observers J. Herman, T. Lowe, P. Minguez, A.
    Schultz, I. Smith.  Measurers K. Chambers, T. de Boer, J. Fairlamb, H.
    Gao, M. Huber, C.-C. Lin, E. Magnier, Y. Ramanjooloo, R. Wainscoat, R.
    Weryk.  1.8-m Ritchey-Chretien + CCD.
F52 Pan-STARRS 2, Haleakala.  Observers J. Herman, T. Lowe, P. Minguez, A.
    Schultz, I. Smith.  Measurers K. Chambers, T. de Boer, J. Fairlamb, H.
    Gao, M. Huber, C.-C. Lin, E. Magnier, Y. Ramanjooloo, R. Wainscoat, R.
    Weryk.  1.8-m Ritchey-Chretien + CCD.
I93 St Pardon de Conques.  Observer F. Losse.  0.40-m f/3.7 reflector + CCD.
L01 Visnjan Observatory, Tican.  Observers K. Korlevic, L. Poropat.  Measurer
    K. Korlevic.  1.0-m f/2.9 reflector + CCD.
Orbital elements:
2024 GG                                                  Earth MOID = 0.0360 AU
Epoch 2024 Mar. 31.0 TT = JDT 2460400.5                 Veres                   
M 355.75897              (2000.0)            P               Q                  
n   0.45054256     Peri.  185.19456     -0.93550323     +0.35252560             
a   1.6851769      Node    15.51122     -0.32089465     -0.81973468             
e   0.3846147      Incl.    5.07396     -0.14785237     -0.45139867             
P   2.19           H   26.82          G   0.15           U   7                  
Residuals in seconds of arc
240401 F51  0.1-  0.2+    240402 958  0.2-  0.9+    240402 L01  0.1+  0.1+
240401 F51  0.1+  0.2+    240402 807  0.1+  0.0     240402 L01  0.5-  0.1-
240401 F51  0.2+  0.3-    240402 807  0.2+  0.1-    240402 L01  0.7-  0.1+
240401 F52  0.0   0.0     240402 807  0.1-  0.0     240403 I93  0.0   0.1+
240401 F52  0.1-  0.0     240402 807  0.0   0.1+    240403 I93  0.3+  0.2-
240402 958  1.0-  0.6-    240402 L01  0.1+  0.2-    240403 I93  0.2+  0.4+
240402 958  1.7-  0.5-    240402 L01  0.2-  0.1+
Ephemeris:
2024 GG                  a,e,i = 1.69, 0.38, 5                   q = 1.0370
Date    TT    R. A. (2000) Decl.     Delta      r    Elong.  Phase     V
2024 03 05    11 02 55.5 +33 54 17   0.1203  1.0997   152.2    24.9    23.6
...
2024 03 20    11 43 15.4 +26 54 43   0.06994 1.0586   153.0    25.3    22.3
...
2024 03 28    12 29 24.7 +14 08 30   0.04912 1.0451   162.9    16.3    21.3
...
2024 04 03    13 23 40.2 -04 15 19   0.03980 1.0392   171.4     8.3    20.5
2024 04 04    13 34 33.8 -08 01 11   0.03909 1.0386   169.4    10.2    20.5
2024 04 05    13 45 56.8 -11 52 22   0.03867 1.0381   166.5    13.0    20.6
...
2024 04 11    15 01 18.1 -33 06 06   0.04204 1.0371   145.7    33.0    21.4
...
2024 04 19    16 36 24.0 -47 55 23   0.05774 1.0418   129.2    48.4    22.5
...
2024 05 04    18 10 21.7 -53 47 09   0.09812 1.0679   125.2    50.5    23.8
M. P. C. Staff               (C) Copyright 2024 MPC           M.P.E.C. 2024-G36
    
    
More information about the Iaude
mailing list